Weather in Petrovskiy

Russia / Ivanovo Oblast     56°38′43″N   40°19′04″E
temp.,
°C
wind,
m/s
gust,
m/s
humid.,
%
clouds,
%
prec.,
mm/h
press.,
hPa
HPBL,
m
16 september, thu
thu1600:00+6wnw4888100 0.4 1012646
03:00+6nw3896100 1.7 1013517
06:00+6n389236 0.3 1015509
09:00+6n368116 0.3 1017625
12:00+9nnw4556100 0.0 10171354
15:00+8nnw4557100 0.0 10181441
18:00+7nnw2665100 0.0 1018634
21:00+6nw3677100 0.1 1019392
17 september, fri
fri1700:00+5nw2583100 0.1 1019239
03:00+5nw2583100 0.1 1019234
06:00+5nw2479100 0.0 1019173
09:00+7n356290 0.1 1019758
12:00+9nne4545100 0.0 10191808
15:00+9nnw3549100 0.1 10191575
18:00+7n236483 0.0 102070
21:00+4n25775 0.0 102186
18 september, sat
sat1800:00+2n24925 0.0 102369
03:00+1n249618 0.0 102486
06:00+4nnw2587100 0.0 1024217
09:00+6n2481100 0.0 1025289
12:00+7nne2475100 0.1 1025502
15:00+10nne434987 0.1 10251447
18:00+6ene22655 0.0 102623
21:00+3ne11755 0.0 102710
19 september, sun
sun1900:00+1ene258321 0.0 1027105
03:00+1ene2686100 0.0 1027130
06:000ene2384100 0.0 102849
09:00+5ene3763100 0.0 1028399
12:00+8ene4547100 0.0 10281179
15:00+9ene4546100 0.0 10271253
18:00+7ene3759100 0.0 1026288
21:00+5ene2969100 0.0 1027276
20 september, mon
mon2000:00+5ene41272100 0.0 1026463
03:00+4ene41174100 0.0 1026474
06:00+3ene51279100 0.0 1026516
09:00+5ene6126999 0.0 1026745
12:00+8e61053100 0.0 10261213
15:00+9ene61054100 0.0 10251303
18:00+7e6116079 0.0 10251139
21:00+5e61377100 0.0 1024915